Location: Chrome
(40.5765°N, 74.2163°W)
Time: 04:32:03
(UTC+00:00)

SL-8 R/B - Pass Details

Date: 06 December 2019
Orbit: 656 x 667 km, 48.4° (Epoch: 28 January)

Event Time Altitude Azimuth Distance (km) Brightness Sun altitude
Rises 22:30:22 0° 299° (WNW) 3,000 7.7 -11.3°
Reaches altitude 10° 22:32:43 10° 299° (WNW) 2,087 6.9 -11.7°
Maximum altitude 22:37:32 81° 213° (SSW) 677 3.8 -12.6°
Drops below altitude 10° 22:42:21 10° 126° (SE) 2,082 5.9 -13.4°
Enters shadow 22:43:29 - 126° (SE) 2,517 6.3 -13.6°
